| time (UTC) | temp F | wind direction | speed knots | gust knots | rain 1hr in | rain 24hr in | rain mn in | humidity % | barometer mb |
| 20260503190431 | 57 | 311 | 3.5 | 3.5 | 0.00 | 0.00 | 0.00 | 36 | 1016.5 |
| 20260503185927 | 56 | 294 | 5.2 | 9.6 | 0.00 | 0.00 | 0.00 | 34 | 1016.9 |
| 20260503185424 | 56 | 339 | 7.8 | 8.7 | 0.00 | 0.00 | 0.00 | 35 | 1016.9 |
| 20260503184923 | 55 | 358 | 2.6 | 5.2 | 0.00 | 0.00 | 0.00 | 41 | 1017.1 |
| 20260503184420 | 56 | 316 | 7.8 | 8.7 | 0.00 | 0.00 | 0.00 | 36 | 1017.1 |
| 20260503183916 | 56 | 233 | 1.7 | 2.6 | 0.00 | 0.00 | 0.00 | 33 | 1017.0 |
| 20260503183413 | 55 | 301 | 5.2 | 8.7 | 0.00 | 0.00 | 0.00 | 36 | 1016.9 |
| 20260503182910 | 56 | 210 | 4.3 | 5.2 | 0.00 | 0.00 | 0.00 | 33 | 1017.0 |
| 20260503182409 | 54 | 307 | 2.6 | 6.1 | 0.00 | 0.00 | 0.00 | 36 | 1016.9 |
| 20260503181906 | 55 | 317 | 7.0 | 7.8 | 0.00 | 0.00 | 0.00 | 35 | 1017.0 |
| 20260503181403 | 0 | 0.0 | 0.0 | 0.00 | 0.00 | 0.00 | 1017.0 | ||
| 20260503180859 | 0 | 0.0 | 0.0 | 0.00 | 0.00 | 0.00 | 1017.1 | ||
| 20260503180357 | 53 | 288 | 10.4 | 13.0 | 0.00 | 0.00 | 0.00 | 36 | 1017.2 |
| 20260503175853 | 53 | 288 | 10.4 | 13.0 | 0.00 | 0.00 | 0.00 | 36 | 1017.2 |
| 20260503175352 | 53 | 18 | 0.9 | 1.7 | 0.00 | 0.00 | 0.00 | 35 | 1017.1 |
| 20260503174847 | 53 | 18 | 0.9 | 1.7 | 0.00 | 0.00 | 0.00 | 35 | 1017.1 |
| 20260503174345 | 54 | 143 | 6.1 | 7.0 | 0.00 | 0.00 | 0.00 | 37 | 1017.1 |
| 20260503173845 | 53 | 163 | 1.7 | 5.2 | 0.00 | 0.00 | 0.00 | 37 | 1017.2 |
| 20260503173342 | 52 | 296 | 3.5 | 3.5 | 0.00 | 0.00 | 0.00 | 38 | 1017.1 |
| 20260503172838 | 53 | 359 | 7.0 | 7.8 | 0.00 | 0.00 | 0.00 | 39 | 1017.2 |
| 20260503172336 | 52 | 42 | 4.3 | 7.0 | 0.00 | 0.00 | 0.00 | 37 | 1017.4 |
| 20260503171832 | 53 | 212 | 0.9 | 1.7 | 0.00 | 0.00 | 0.00 | 44 | 1017.4 |
| 20260503171329 | 53 | 212 | 0.9 | 1.7 | 0.00 | 0.00 | 0.00 | 44 | 1017.4 |
| 20260503170826 | 53 | 170 | 1.7 | 1.7 | 0.00 | 0.00 | 0.00 | 39 | 1017.5 |
| 20260503170323 | 52 | 214 | 3.5 | 6.1 | 0.00 | 0.00 | 0.00 | 42 | 1017.5 |
| 20260503150715 | 49 | 214 | 0.0 | 0.9 | 0.00 | 0.00 | 0.00 | 51 | 1018.5 |
| 20260503150211 | 48 | 298 | 5.2 | 7.8 | 0.00 | 0.00 | 0.00 | 48 | 1018.6 |
| 20260503140136 | 45 | 305 | 2.6 | 2.6 | 0.00 | 0.00 | 0.00 | 57 | 1018.6 |
| 20260503131105 | 43 | 189 | 1.7 | 1.7 | 0.00 | 0.00 | 0.00 | 61 | 1018.3 |
| 20260503130603 | 43 | 309 | 0.9 | 0.9 | 0.00 | 0.00 | 0.00 | 59 | 1018.4 |
| 20260503110453 | 36 | 59 | 0.0 | 0.0 | 0.00 | 0.00 | 0.00 | 71 | 1017.4 |
| 20260503090338 | 37 | 330 | 1.7 | 1.7 | 0.00 | 0.00 | 0.00 | 70 | 1016.0 |
| 20260503081306 | 37 | 27 | 4.3 | 7.0 | 0.00 | 0.00 | 0.00 | 70 | 1016.0 |
| 20260503080802 | 37 | 323 | 3.5 | 3.5 | 0.00 | 0.00 | 0.00 | 70 | 1015.9 |
| 20260503080259 | 37 | 19 | 1.7 | 5.2 | 0.00 | 0.00 | 0.00 | 70 | 1015.6 |
| 20260503072736 | 37 | 318 | 1.7 | 1.7 | 0.00 | 0.00 | 0.00 | 70 | 1015.4 |
| 20260503072233 | 37 | 318 | 1.7 | 3.5 | 0.00 | 0.00 | 0.00 | 70 | 1015.7 |
| 20260503071729 | 37 | 144 | 0.9 | 0.9 | 0.00 | 0.00 | 0.00 | 72 | 1015.5 |
| 20260503071226 | 37 | 317 | 1.7 | 1.7 | 0.00 | 0.00 | 0.00 | 73 | 1015.8 |
| 20260503070722 | 37 | 331 | 0.9 | 2.6 | 0.00 | 0.00 | 0.00 | 73 | 1015.7 |
| 20260503070221 | 37 | 316 | 0.0 | 0.9 | 0.00 | 0.00 | 0.00 | 73 | 1015.7 |
| 20260503060145 | 38 | 337 | 5.2 | 7.0 | 0.00 | 0.00 | 0.00 | 68 | 1015.4 |
| 20260503054632 | 38 | 0 | 1.7 | 1.7 | 0.00 | 0.00 | 0.00 | 69 | 1015.3 |
| 20260503054129 | 38 | 324 | 3.5 | 3.5 | 0.00 | 0.00 | 0.00 | 69 | 1015.3 |
| 20260503053627 | 38 | 340 | 2.6 | 2.6 | 0.00 | 0.00 | 0.00 | 69 | 1015.6 |
| 20260503053125 | 38 | 340 | 2.6 | 3.5 | 0.00 | 0.00 | 0.00 | 69 | 1015.5 |
| 20260503052621 | 0 | 0.0 | 0.0 | 0.00 | 0.00 | 0.00 | 1015.3 | ||
| 20260503052118 | 39 | 328 | 3.5 | 3.5 | 0.00 | 0.00 | 0.00 | 68 | 1015.4 |
| 20260503051613 | 39 | 328 | 3.5 | 3.5 | 0.00 | 0.00 | 0.00 | 68 | 1015.3 |
| 20260503051111 | 39 | 232 | 1.7 | 2.6 | 0.00 | 0.00 | 0.00 | 68 | 1015.3 |
| 20260503050607 | 39 | 281 | 0.0 | 0.0 | 0.00 | 0.00 | 0.00 | 68 | 1015.5 |
| 20260503050104 | 39 | 328 | 1.7 | 1.7 | 0.00 | 0.00 | 0.00 | 68 | 1015.7 |
| 20260503045601 | 40 | 31 | 4.3 | 5.2 | 0.00 | 0.00 | 0.00 | 67 | 1015.5 |
| 20260503045059 | 0 | 0.0 | 0.0 | 0.00 | 0.00 | 0.00 | 1015.5 | ||
| 20260503044555 | 0 | 0.0 | 0.0 | 0.00 | 0.00 | 0.00 | 1015.6 | ||
| 20260503044053 | 0 | 0.0 | 0.0 | 0.00 | 0.00 | 0.00 | 1015.6 | ||
| 20260503043549 | 40 | 43 | 7.0 | 9.6 | 0.00 | 0.00 | 0.00 | 66 | 1015.8 |
| 20260503043046 | 40 | 43 | 7.0 | 9.6 | 0.00 | 0.00 | 0.00 | 66 | 1015.6 |
| 20260503042542 | 40 | 5 | 3.5 | 6.1 | 0.00 | 0.00 | 0.00 | 67 | 1015.7 |
| 20260503042038 | 40 | 5 | 3.5 | 6.1 | 0.00 | 0.00 | 0.00 | 67 | 1015.6 |
| 20260503041535 | 40 | 46 | 0.0 | 0.9 | 0.00 | 0.00 | 0.00 | 68 | 1015.5 |
| 20260503041033 | 0 | 0.0 | 0.0 | 0.00 | 0.00 | 0.00 | 1015.5 | ||
| 20260503040530 | 41 | 266 | 2.6 | 2.6 | 0.00 | 0.00 | 0.00 | 68 | 1015.5 |
| 20260503040028 | 41 | 266 | 2.6 | 2.6 | 0.00 | 0.00 | 0.00 | 68 | 1015.6 |
| 20260503035524 | 41 | 310 | 4.3 | 6.1 | 0.00 | 0.00 | 0.00 | 67 | 1015.6 |
| 20260503035022 | 41 | 10 | 2.6 | 2.6 | 0.00 | 0.00 | 0.00 | 67 | 1015.6 |
| 20260503034519 | 41 | 297 | 5.2 | 7.0 | 0.00 | 0.00 | 0.00 | 66 | 1015.6 |
| 20260503034016 | 41 | 297 | 5.2 | 7.0 | 0.00 | 0.00 | 0.00 | 66 | 1015.5 |
| 20260503033513 | 42 | 19 | 3.5 | 5.2 | 0.00 | 0.00 | 0.00 | 65 | 1015.4 |
| 20260503033011 | 42 | 19 | 3.5 | 5.2 | 0.00 | 0.00 | 0.00 | 65 | 1015.5 |
| 20260503032509 | 41 | 292 | 4.3 | 7.0 | 0.00 | 0.00 | 0.00 | 66 | 1015.6 |
| 20260503032007 | 41 | 315 | 7.0 | 8.7 | 0.00 | 0.00 | 0.00 | 66 | 1015.5 |
| 20260503031505 | 41 | 341 | 6.1 | 8.7 | 0.00 | 0.00 | 0.00 | 67 | 1015.7 |
| 20260503031001 | 41 | 338 | 2.6 | 3.5 | 0.00 | 0.00 | 0.00 | 66 | 1015.4 |
| 20260503030457 | 41 | 300 | 3.5 | 3.5 | 0.00 | 0.00 | 0.00 | 65 | 1015.5 |
| 20260503025954 | 41 | 339 | 2.6 | 2.6 | 0.00 | 0.00 | 0.00 | 66 | 1015.5 |
| 20260503025451 | 42 | 340 | 3.5 | 5.2 | 0.00 | 0.00 | 0.00 | 66 | 1015.8 |
| 20260503024949 | 42 | 301 | 1.7 | 1.7 | 0.00 | 0.00 | 0.00 | 64 | 1015.4 |
| 20260503024445 | 42 | 307 | 0.9 | 1.7 | 0.00 | 0.00 | 0.00 | 65 | 1015.6 |
| 20260503023942 | 42 | 1 | 3.5 | 5.2 | 0.00 | 0.00 | 0.00 | 63 | 1015.6 |
| 20260503023439 | 0 | 0.0 | 0.0 | 0.00 | 0.00 | 0.00 | 1015.4 | ||
| 20260503022936 | 43 | 48 | 1.7 | 2.6 | 0.00 | 0.00 | 0.00 | 62 | 1015.4 |
| 20260503022431 | 43 | 48 | 1.7 | 2.6 | 0.00 | 0.00 | 0.00 | 62 | 1015.5 |
| 20260503021927 | 43 | 337 | 3.5 | 3.5 | 0.00 | 0.00 | 0.00 | 61 | 1015.5 |
| 20260503021423 | 0 | 0.0 | 0.0 | 0.00 | 0.00 | 0.00 | 1015.5 | ||
| 20260503020921 | 0 | 0.0 | 0.0 | 0.00 | 0.00 | 0.00 | 1015.2 | ||
| 20260503020419 | 0 | 0.0 | 0.0 | 0.00 | 0.00 | 0.00 | 1015.3 | ||
| 20260503015915 | 0 | 0.0 | 0.0 | 0.00 | 0.00 | 0.00 | 1015.3 | ||
| 20260503015412 | 0 | 0.0 | 0.0 | 0.00 | 0.00 | 0.00 | 1015.4 | ||
| 20260503014908 | 43 | 354 | 1.7 | 2.6 | 0.00 | 0.00 | 0.00 | 59 | 1015.3 |
| 20260503014405 | 43 | 354 | 1.7 | 2.6 | 0.00 | 0.00 | 0.00 | 59 | 1015.2 |
| 20260503013903 | 43 | 223 | 0.0 | 0.0 | 0.00 | 0.00 | 0.00 | 59 | 1015.1 |
| 20260503013400 | 44 | 297 | 0.0 | 1.7 | 0.00 | 0.00 | 0.00 | 57 | 1015.2 |
| 20260503012857 | 44 | 219 | 1.7 | 1.7 | 0.00 | 0.00 | 0.00 | 57 | 1015.1 |
| 20260503012355 | 45 | 192 | 0.9 | 0.9 | 0.00 | 0.00 | 0.00 | 55 | 1015.1 |
| 20260503011851 | 45 | 192 | 0.9 | 0.9 | 0.00 | 0.00 | 0.00 | 55 | 1014.9 |
| 20260503011348 | 45 | 192 | 3.5 | 3.5 | 0.00 | 0.00 | 0.00 | 54 | 1014.9 |
| 20260503010844 | 45 | 235 | 0.0 | 0.9 | 0.00 | 0.00 | 0.00 | 53 | 1014.9 |
| 20260503010342 | 46 | 316 | 6.1 | 7.8 | 0.00 | 0.00 | 0.00 | 52 | 1014.6 |
| 20260503005838 | 46 | 318 | 5.2 | 7.0 | 0.00 | 0.00 | 0.00 | 52 | 1014.4 |
| 20260503005336 | 46 | 315 | 4.3 | 6.1 | 0.00 | 0.00 | 0.00 | 51 | 1014.5 |
| 20260503004827 | 46 | 315 | 4.3 | 6.1 | 0.00 | 0.00 | 0.00 | 51 | 1014.3 |
| 20260503004325 | 46 | 38 | 0.0 | 0.9 | 0.00 | 0.00 | 0.00 | 52 | 1014.4 |
| 20260503003822 | 46 | 319 | 1.7 | 2.6 | 0.00 | 0.00 | 0.00 | 50 | 1014.4 |
| 20260503003319 | 46 | 29 | 2.6 | 3.5 | 0.00 | 0.00 | 0.00 | 51 | 1014.1 |
| 20260503002816 | 46 | 223 | 1.7 | 1.7 | 0.00 | 0.00 | 0.00 | 50 | 1014.1 |
| 20260503002313 | 46 | 95 | 0.9 | 1.7 | 0.00 | 0.00 | 0.00 | 48 | 1014.0 |
| 20260503001809 | 46 | 95 | 0.9 | 1.7 | 0.00 | 0.00 | 0.00 | 48 | 1013.8 |
| 20260503001305 | 47 | 15 | 5.2 | 7.0 | 0.00 | 0.00 | 0.00 | 47 | 1014.0 |
| 20260503000803 | 47 | 315 | 7.0 | 8.7 | 0.00 | 0.00 | 0.00 | 48 | 1013.7 |
| 20260503000300 | 46 | 343 | 6.1 | 8.7 | 0.00 | 0.00 | 0.00 | 48 | 1013.8 |
| 20260502235757 | 47 | 49 | 4.3 | 6.1 | 0.00 | 0.00 | 0.00 | 47 | 1013.7 |
| 20260502235255 | 47 | 346 | 5.2 | 9.6 | 0.00 | 0.00 | 0.00 | 46 | 1013.5 |
| 20260502234750 | 47 | 348 | 3.5 | 3.5 | 0.00 | 0.00 | 0.00 | 45 | 1013.4 |
| 20260502234242 | 47 | 312 | 4.3 | 7.0 | 0.00 | 0.00 | 0.00 | 44 | 1013.6 |
| 20260502233738 | 47 | 345 | 1.7 | 1.7 | 0.00 | 0.00 | 0.00 | 47 | 1013.2 |
| 20260502233235 | 47 | 342 | 6.1 | 7.8 | 0.00 | 0.00 | 0.00 | 45 | 1013.4 |
| 20260502232730 | 47 | 307 | 1.7 | 1.7 | 0.00 | 0.00 | 0.00 | 46 | 1013.2 |
| 20260502232228 | 48 | 321 | 5.2 | 7.0 | 0.00 | 0.00 | 0.00 | 43 | 1013.2 |
| 20260502231724 | 48 | 321 | 5.2 | 7.0 | 0.00 | 0.00 | 0.00 | 43 | 1013.4 |
| 20260502231222 | 48 | 345 | 2.6 | 5.2 | 0.00 | 0.00 | 0.00 | 45 | 1013.4 |
| 20260502230721 | 48 | 192 | 1.7 | 3.5 | 0.00 | 0.00 | 0.00 | 45 | 1013.2 |
| 20260502230219 | 48 | 336 | 4.3 | 5.2 | 0.00 | 0.00 | 0.00 | 45 | 1013.3 |
| 20260502225714 | 48 | 289 | 3.5 | 3.5 | 0.00 | 0.00 | 0.00 | 45 | 1013.2 |
| 20260502225211 | 48 | 310 | 5.2 | 7.0 | 0.00 | 0.00 | 0.00 | 43 | 1013.3 |
| 20260502224707 | 49 | 338 | 5.2 | 6.1 | 0.00 | 0.00 | 0.00 | 45 | 1013.2 |
| 20260502224205 | 48 | 336 | 5.2 | 6.1 | 0.00 | 0.00 | 0.00 | 44 | 1013.3 |
| 20260502223702 | 0 | 0.0 | 0.0 | 0.00 | 0.00 | 0.00 | 1013.1 | ||
| 20260502223200 | 0 | 0.0 | 0.0 | 0.00 | 0.00 | 0.00 | 1013.2 | ||
| 20260502222658 | 0 | 0.0 | 0.0 | 0.00 | 0.00 | 0.00 | 1013.4 | ||
| 20260502222154 | 49 | 285 | 1.7 | 1.7 | 0.00 | 0.00 | 0.00 | 46 | 1013.2 |
| 20260502221649 | 49 | 285 | 1.7 | 1.7 | 0.00 | 0.00 | 0.00 | 46 | 1013.1 |
| 20260502221147 | 50 | 281 | 1.7 | 2.6 | 0.00 | 0.00 | 0.00 | 44 | 1013.1 |
| 20260502220643 | 50 | 355 | 0.9 | 0.9 | 0.00 | 0.00 | 0.00 | 46 | 1013.0 |
| 20260502220139 | 49 | 158 | 0.9 | 1.7 | 0.00 | 0.00 | 0.00 | 49 | 1013.0 |
| 20260502215637 | 49 | 297 | 5.2 | 7.0 | 0.00 | 0.00 | 0.00 | 45 | 1013.0 |
| 20260502215133 | 0 | 0.0 | 0.0 | 0.00 | 0.00 | 0.00 | 1012.9 | ||
| 20260502214631 | 50 | 348 | 3.5 | 5.2 | 0.00 | 0.00 | 0.00 | 44 | 1013.0 |
| 20260502214127 | 50 | 333 | 7.0 | 7.8 | 0.00 | 0.00 | 0.00 | 46 | 1013.2 |
| 20260502213625 | 50 | 241 | 0.9 | 0.9 | 0.00 | 0.00 | 0.00 | 44 | 1013.1 |
| 20260502213122 | 50 | 326 | 1.7 | 2.6 | 0.00 | 0.00 | 0.00 | 48 | 1013.1 |
| 20260502212621 | 50 | 326 | 1.7 | 2.6 | 0.00 | 0.00 | 0.00 | 48 | 1013.1 |
| 20260502212114 | 50 | 316 | 4.3 | 6.1 | 0.00 | 0.00 | 0.00 | 43 | 1013.2 |
| 20260502211609 | 50 | 318 | 3.5 | 5.2 | 0.00 | 0.00 | 0.00 | 45 | 1013.1 |
| 20260502211106 | 50 | 349 | 7.0 | 9.6 | 0.00 | 0.00 | 0.00 | 42 | 1013.2 |
| 20260502210603 | 51 | 307 | 7.8 | 8.7 | 0.00 | 0.00 | 0.00 | 45 | 1013.0 |
| 20260502210059 | 52 | 323 | 6.1 | 7.8 | 0.00 | 0.00 | 0.00 | 42 | 1012.9 |
| 20260502205556 | 51 | 310 | 5.2 | 6.1 | 0.00 | 0.00 | 0.00 | 49 | 1013.1 |
| 20260502205054 | 52 | 321 | 1.7 | 3.5 | 0.00 | 0.00 | 0.00 | 44 | 1013.0 |
| 20260502204550 | 51 | 136 | 0.9 | 0.9 | 0.00 | 0.00 | 0.00 | 46 | 1012.9 |
| 20260502204048 | 51 | 280 | 0.9 | 0.9 | 0.00 | 0.00 | 0.00 | 50 | 1013.1 |
| 20260502203544 | 50 | 306 | 4.3 | 7.8 | 0.00 | 0.00 | 0.00 | 47 | 1013.3 |
| 20260502203042 | 50 | 320 | 7.0 | 7.8 | 0.00 | 0.00 | 0.00 | 44 | 1013.1 |
| 20260502202538 | 50 | 297 | 3.5 | 5.2 | 0.00 | 0.00 | 0.00 | 46 | 1013.3 |
| 20260502202036 | 50 | 242 | 0.9 | 2.6 | 0.00 | 0.00 | 0.00 | 46 | 1013.2 |
| 20260502201531 | 51 | 282 | 7.0 | 11.3 | 0.00 | 0.00 | 0.00 | 46 | 1013.1 |
| 20260502201029 | 51 | 235 | 1.7 | 2.6 | 0.00 | 0.00 | 0.00 | 44 | 1013.1 |
| 20260502200524 | 51 | 169 | 3.5 | 7.8 | 0.00 | 0.00 | 0.00 | 45 | 1013.2 |
| 20260502200022 | 50 | 347 | 7.8 | 13.9 | 0.00 | 0.00 | 0.00 | 46 | 1013.2 |
| 20260502195520 | 51 | 284 | 3.5 | 8.7 | 0.00 | 0.00 | 0.00 | 45 | 1013.2 |
| 20260502195016 | 51 | 217 | 1.7 | 1.7 | 0.00 | 0.00 | 0.00 | 53 | 1013.1 |
| 20260502194513 | 50 | 280 | 1.7 | 2.6 | 0.00 | 0.00 | 0.00 | 47 | 1013.3 |
| 20260502194009 | 51 | 330 | 3.5 | 5.2 | 0.00 | 0.00 | 0.00 | 43 | 1013.4 |
| 20260502193506 | 51 | 303 | 1.7 | 1.7 | 0.00 | 0.00 | 0.00 | 44 | 1013.5 |
| 20260502193001 | 51 | 320 | 6.1 | 9.6 | 0.00 | 0.00 | 0.00 | 47 | 1013.5 |
| 20260502192458 | 50 | 303 | 7.0 | 8.7 | 0.00 | 0.00 | 0.00 | 49 | 1013.6 |
| 20260502191955 | 50 | 308 | 5.2 | 7.0 | 0.00 | 0.00 | 0.00 | 49 | 1013.4 |
| 20260502191452 | 50 | 308 | 5.2 | 7.0 | 0.00 | 0.00 | 0.00 | 49 | 1013.7 |
| 20260502190950 | 51 | 319 | 6.1 | 9.6 | 0.00 | 0.00 | 0.00 | 49 | 1013.7 |